Location: ???? ????
(41.4149°N, 22.8816°E)
Time: 14:45:45
(UTC+00:00)

Abrixas rocket - Pass Details

Date: 14 July 2020
Orbit: 339 x 347 km, 48.4° (Epoch: 04 August)

Event Time Altitude Azimuth Distance (km) Brightness Sun altitude
Rises 01:33:15 0° 300° (WNW) 2,126 5.7 -14.6°
Reaches altitude 10° 01:35:18 10° 306° (NW) 1,284 4.6 -14.3°
Maximum altitude 01:38:07 51° 24° (NNE) 433 2.7 -14.0°
Drops below altitude 10° 01:40:54 10° 103° (ESE) 1,279 5.1 -13.6°
Sets 01:42:56 0° 108° (ESE) 2,115 6.2 -13.3°
